Brunswick, GA

7:59 PM EDT on April 23, 2017 (GMT -0400)
Glynco Jetport

Weather History for KBQK - August, 2012

Change the Weather History Date:

Monday, August 13, 2012

  Actual Average Record
Temperature  
Mean Temperature 86 °F -  
Max Temperature 95 °F 90 °F 132 °F (1998)
Min Temperature 75 °F 72 °F 15 °F (1998)
Cooling Degree Days 21    
Growing Degree Days 36 (Base 50)    
Moisture  
Dew Point 76 °F    
Average Humidity 80    
Maximum Humidity 100    
Minimum Humidity 47    
Precipitation  
Precipitation 0.00 in - - ()
Sea Level Pressure  
Sea Level Pressure 30.02 in    
Wind  
Wind Speed 3 mph (SSW)    
Max Wind Speed 8 mph    
Max Gust Speed -    
Visibility 8 miles    
Events Thunderstorm    
Averages and records for this station are not official NWS values.
T = Trace of Precipitation, MM = Missing Value Source: NWS Daily Summary

Daily Weather History Graph

Daily Weather History Graph

Search for Another Location

Airport or City:

Trip Planner

Search our weather history database for the weather conditions in past years. The results will help you decide how hot, cold, wet, or windy it might be!

Date:

Astronomy

Aug. 13, 2012 Rise Set
Actual Time 6:50 AM EDT 8:10 PM EDT
Civil Twilight 6:24 AM EDT 8:35 PM EDT
Nautical Twilight 5:54 AM EDT 9:06 PM EDT
Astronomical Twilight 5:22 AM EDT 9:37 PM EDT
Moon 3:00 AM EDT (8/13) 5:14 PM EDT (8/13)
Length of Visible Light 14h 10m
Length of Day
13h 19m
Waning Crescent, 16% of the Moon is Illuminated
Aug 13
Waning Crescent
Aug 17
New
Aug 24
First Quarter
Aug 31
Full
Sep 8
Last Quarter

Hourly Weather History & Observations

Time (EDT) Temp. Heat Index Dew Point Humidity Pressure Visibility Wind Dir Wind Speed Gust Speed Precip Events Conditions
12:15 AM 80.6 °F 87.1 °F 77.0 °F 89% 30.02 in 10.0 mi Calm Calm - N/A   Clear
12:35 AM 80.6 °F 87.1 °F 77.0 °F 89% 30.02 in 10.0 mi WSW 3.5 mph - N/A   Clear
12:55 AM 80.6 °F 88.1 °F 78.8 °F 94% 30.02 in 10.0 mi WSW 6.9 mph - N/A   Clear
1:15 AM 80.6 °F 88.1 °F 78.8 °F 94% 30.02 in 10.0 mi WSW 4.6 mph - N/A   Clear
1:35 AM 80.6 °F 87.1 °F 77.0 °F 89% 30.01 in 10.0 mi West 5.8 mph - N/A   Clear
1:55 AM 80.6 °F 87.1 °F 77.0 °F 89% 30.00 in 10.0 mi West 4.6 mph - N/A   Clear
2:15 AM 80.6 °F 87.1 °F 77.0 °F 89% 30.00 in 10.0 mi West 4.6 mph - N/A   Clear
2:35 AM 78.8 °F - 77.0 °F 94% 30.00 in 10.0 mi West 3.5 mph - N/A   Clear
2:55 AM 78.8 °F - 77.0 °F 94% 30.00 in 10.0 mi West 3.5 mph - N/A   Clear
3:15 AM 78.8 °F - 77.0 °F 94% 30.00 in 10.0 mi WSW 3.5 mph - N/A   Clear
3:35 AM 78.8 °F - 77.0 °F 94% 30.00 in 10.0 mi WSW 3.5 mph - N/A   Clear
3:55 AM 78.8 °F - 77.0 °F 94% 30.00 in 10.0 mi Calm Calm - N/A   Clear
4:15 AM 77.0 °F - 77.0 °F 100% 30.00 in 3.0 mi Calm Calm - N/A   Clear
4:35 AM 78.8 °F - 77.0 °F 94% 30.01 in 10.0 mi Calm Calm - N/A   Clear
4:55 AM 77.0 °F - 77.0 °F 100% 30.01 in 0.8 mi Calm Calm - N/A   Unknown
5:15 AM 78.8 °F - 77.0 °F 94% 30.01 in 2.0 mi Calm Calm - N/A   Clear
5:35 AM 78.8 °F - 77.0 °F 94% 30.02 in 10.0 mi SW 3.5 mph - N/A   Clear
5:55 AM 78.8 °F - 77.0 °F 94% 30.02 in 10.0 mi Calm Calm - N/A   Clear
6:15 AM 77.0 °F - 75.2 °F 94% 30.03 in 4.0 mi Calm Calm - N/A   Mostly Cloudy
6:35 AM 77.0 °F - 75.2 °F 94% 30.03 in 0.8 mi Calm Calm - N/A   Mostly Cloudy
6:55 AM 77.0 °F - 77.0 °F 100% 30.04 in 0.2 mi Calm Calm - N/A   Unknown
7:15 AM 77.0 °F - 75.2 °F 94% 30.04 in 0.2 mi Calm Calm - N/A   Unknown
7:35 AM 77.0 °F - 75.2 °F 94% 30.05 in 1.8 mi Calm Calm - N/A   Unknown
7:55 AM 78.8 °F - 77.0 °F 94% 30.05 in 10.0 mi Calm Calm - N/A   Scattered Clouds
8:15 AM 80.6 °F 88.1 °F 78.8 °F 94% 30.06 in 10.0 mi WSW 3.5 mph - N/A   Scattered Clouds
8:35 AM 80.6 °F 88.1 °F 78.8 °F 94% 30.06 in 10.0 mi SW 3.5 mph - N/A   Clear
8:55 AM 82.4 °F 92.4 °F 78.8 °F 89% 30.06 in 10.0 mi WSW 3.5 mph - N/A   Scattered Clouds
9:15 AM 84.2 °F 96.1 °F 78.8 °F 84% 30.06 in 10.0 mi SW 4.6 mph - N/A   Overcast
9:35 AM 86.0 °F 96.9 °F 77.0 °F 74% 30.07 in 10.0 mi WSW 3.5 mph - N/A   Overcast
9:55 AM 86.0 °F 96.9 °F 77.0 °F 74% 30.07 in 10.0 mi West 3.5 mph - N/A   Overcast
10:15 AM 86.0 °F 96.9 °F 77.0 °F 74% 30.06 in 10.0 mi West 3.5 mph - N/A   Mostly Cloudy
10:35 AM 87.8 °F 97.6 °F 75.2 °F 66% 30.06 in 10.0 mi Calm Calm - N/A   Scattered Clouds
10:55 AM 89.6 °F 98.2 °F 73.4 °F 59% 30.06 in 10.0 mi Calm Calm - N/A   Scattered Clouds
11:15 AM 89.6 °F 98.2 °F 73.4 °F 59% 30.06 in 10.0 mi Calm Calm - N/A   Mostly Cloudy
11:35 AM 89.6 °F 96.2 °F 71.6 °F 55% 30.06 in 10.0 mi WSW 3.5 mph - N/A   Mostly Cloudy
11:55 AM 91.4 °F 98.4 °F 71.6 °F 52% 30.05 in 10.0 mi West 3.5 mph - N/A   Mostly Cloudy
12:15 PM 91.4 °F 100.1 °F 73.4 °F 55% 30.04 in 10.0 mi WSW 8.1 mph - N/A   Mostly Cloudy
12:35 PM 91.4 °F 98.4 °F 71.6 °F 52% 30.03 in 10.0 mi WNW 3.5 mph - N/A   Scattered Clouds
12:55 PM 93.2 °F 100.5 °F 71.6 °F 49% 30.03 in 10.0 mi Calm Calm - N/A   Scattered Clouds
1:15 PM 95.0 °F 103.2 °F 71.6 °F 47% 30.03 in 10.0 mi SSE 3.5 mph - N/A   Scattered Clouds
1:35 PM 91.4 °F 98.4 °F 71.6 °F 52% 30.02 in 10.0 mi SE 4.6 mph - N/A   Mostly Cloudy
1:55 PM 91.4 °F 98.4 °F 71.6 °F 52% 30.02 in 10.0 mi ESE 4.6 mph - N/A   Mostly Cloudy
2:15 PM 91.4 °F 98.4 °F 71.6 °F 52% 30.02 in 10.0 mi South 6.9 mph - N/A Thunderstorm Thunderstorm
2:55 PM 89.6 °F 98.2 °F 73.4 °F 59% 30.02 in 10.0 mi South 6.9 mph - N/A   Scattered Clouds
3:35 PM 87.8 °F 102.5 °F 78.8 °F 75% 30.00 in 10.0 mi South 5.8 mph - N/A   Clear
3:55 PM 89.6 °F 104.7 °F 78.8 °F 70% 29.99 in 10.0 mi SE 8.1 mph - N/A   Scattered Clouds
4:15 PM 89.6 °F 99.8 °F 75.2 °F 62% 29.99 in 10.0 mi SSE 6.9 mph - N/A   Scattered Clouds
4:35 PM 89.6 °F 99.8 °F 75.2 °F 62% 29.99 in 10.0 mi SSE 6.9 mph - N/A   Clear
4:55 PM 91.4 °F 100.1 °F 73.4 °F 55% 29.98 in 10.0 mi SE 6.9 mph - N/A   Clear
5:15 PM 89.6 °F 99.8 °F 75.2 °F 62% 29.98 in 10.0 mi SSE 5.8 mph - N/A   Scattered Clouds
5:35 PM 89.6 °F 102.2 °F 77.0 °F 66% 29.98 in 10.0 mi SE 8.1 mph - N/A   Mostly Cloudy
5:55 PM 89.6 °F 102.2 °F 77.0 °F 66% 29.98 in 10.0 mi SE 6.9 mph - N/A   Mostly Cloudy
6:15 PM 89.6 °F 102.2 °F 77.0 °F 66% 29.99 in 10.0 mi SE 6.9 mph - N/A   Mostly Cloudy
6:35 PM 89.6 °F 102.2 °F 77.0 °F 66% 29.99 in 10.0 mi SE 4.6 mph - N/A   Scattered Clouds
6:55 PM 89.6 °F 102.2 °F 77.0 °F 66% 30.00 in 10.0 mi SE 4.6 mph - N/A   Clear
7:15 PM 87.8 °F 99.7 °F 77.0 °F 70% 30.00 in 10.0 mi SE 6.9 mph - N/A   Clear
7:35 PM 87.8 °F 102.5 °F 78.8 °F 75% 30.00 in 10.0 mi SSE 6.9 mph - N/A   Clear
7:55 PM 86.0 °F 96.9 °F 77.0 °F 74% 30.00 in 10.0 mi South 4.6 mph - N/A   Clear
8:15 PM 86.0 °F 99.3 °F 78.8 °F 79% 30.01 in 10.0 mi SSW 4.6 mph - N/A   Clear
8:35 PM 82.4 °F 92.4 °F 78.8 °F 89% 30.01 in 10.0 mi Calm Calm - N/A   Clear
8:55 PM 80.6 °F 87.1 °F 77.0 °F 89% 30.01 in 10.0 mi Calm Calm - N/A   Clear
9:15 PM 80.6 °F 87.1 °F 77.0 °F 89% 30.01 in 10.0 mi Calm Calm - N/A   Clear
9:35 PM 78.8 °F - 77.0 °F 94% 30.01 in 5.0 mi Calm Calm - N/A   Clear
9:55 PM 78.8 °F - 77.0 °F 94% 30.01 in 0.8 mi Calm Calm - N/A   Unknown
10:15 PM 78.8 °F - 77.0 °F 94% 30.00 in 1.5 mi Calm Calm - N/A   Unknown
10:35 PM 78.8 °F - 77.0 °F 94% 30.00 in 0.5 mi Calm Calm - N/A   Mostly Cloudy
10:55 PM 78.8 °F - 77.0 °F 94% 30.01 in 0.2 mi Calm Calm - N/A   Unknown
11:15 PM 77.0 °F - 75.2 °F 94% 30.01 in 0.5 mi Calm Calm - N/A   Unknown
11:35 PM 77.0 °F - 75.2 °F 94% 30.00 in 0.5 mi Calm Calm - N/A   Unknown
11:55 PM 75.2 °F - 73.4 °F 94% 30.01 in 4.0 mi Calm Calm - N/A   Scattered Clouds